Weather History for Suffolk, VA

Change the Weather History Date:

Friday, February 8, 2013

  Actual Average Record
Temperature  
Mean Temperature 48 °F -  
Max Temperature 53 °F 46 °F 73 °F (2009)
Min Temperature 42 °F 28 °F 13 °F (1977)
Degree Days  
Heating Degree Days 18    
Moisture  
Dew Point 43 °F    
Average Humidity 91    
Maximum Humidity 100    
Minimum Humidity 66    
Precipitation  
Precipitation 1.75 in - - ()
Sea Level Pressure  
Sea Level Pressure 29.80 in    
Wind  
Wind Speed 14 mph (NW)    
Max Wind Speed 21 mph    
Max Gust Speed 33 mph    
Visibility 9 miles    
Events Rain    
Averages and records for this station are not official NWS values.
T = Trace of Precipitation, MM = Missing Value Source: NWS Daily Summary

Daily Weather History Graph

Daily Weather History Graph

Search for Another Location

Airport:

Trip Planner

Search our weather history database for the weather conditions in past years. The results will help you decide how hot, cold, wet, or windy it might be!

Date:

Astronomy

Feb. 08, 2013 Rise Set
Actual Time 7:01 AM EST 5:39 PM EST
Civil Twilight 6:34 AM EST 6:06 PM EST
Nautical Twilight 6:04 AM EST 6:37 PM EST
Astronomical Twilight 5:34 AM EST 7:07 PM EST
Moon 5:27 AM EST (2/8) 4:11 PM EST (2/8)
Length of Visible Light 11h 31m
Length of Day
10h 38m
Waning Crescent, 3% of the Moon is Illuminated
Feb 8
Waning Crescent
Feb 10
New
Feb 17
First Quarter
Feb 25
Full
Mar 4
Last Quarter

Hourly Weather History & Observations

Time (EST) Temp. Windchill Dew Point Humidity Pressure Visibility Wind Dir Wind Speed Gust Speed Precip Events Conditions
12:15 AM 44.6 °F 38.8 °F 44.6 °F 100% 30.08 in 10.0 mi NE 11.5 mph - 0.05 in Rain Rain
12:35 AM 44.6 °F 38.4 °F 44.6 °F 100% 30.06 in 10.0 mi NE 12.7 mph 18.4 mph 0.09 in Rain Light Rain
12:55 AM 44.6 °F 39.2 °F 44.6 °F 100% 30.05 in 10.0 mi NE 10.4 mph - 0.12 in Rain Light Rain
1:15 AM 44.6 °F 37.8 °F 44.6 °F 100% 30.03 in 10.0 mi NE 15.0 mph - 0.05 in Rain Rain
1:35 AM 44.6 °F 38.4 °F 44.6 °F 100% 30.01 in 10.0 mi NE 12.7 mph 19.6 mph 0.10 in Rain Rain
1:55 AM 44.6 °F 37.8 °F 44.6 °F 100% 29.99 in 10.0 mi NNE 15.0 mph 18.4 mph 0.14 in Rain Rain
2:15 AM 44.6 °F 37.4 °F 42.8 °F 93% 29.96 in 10.0 mi NE 16.1 mph 27.6 mph 0.06 in Rain Light Rain
2:35 AM 44.6 °F 36.6 °F 42.8 °F 93% 29.92 in 10.0 mi NNE 19.6 mph 27.6 mph 0.11 in Rain Light Rain
2:55 AM 44.6 °F 38.1 °F 42.8 °F 93% 29.92 in 10.0 mi NNE 13.8 mph 23.0 mph 0.15 in Rain Rain
3:15 AM 44.6 °F 37.2 °F 42.8 °F 93% 29.90 in 10.0 mi NE 17.3 mph 25.3 mph 0.04 in Rain Rain
3:35 AM 44.6 °F 38.1 °F 42.8 °F 93% 29.88 in 7.0 mi NNE 13.8 mph 26.5 mph 0.11 in Rain Rain
3:55 AM 44.6 °F 37.2 °F 42.8 °F 93% 29.87 in 5.0 mi NNE 17.3 mph 24.2 mph 0.20 in Rain Rain
4:15 AM 44.6 °F 38.1 °F 44.6 °F 100% 29.85 in 5.0 mi NNE 13.8 mph 20.7 mph 0.09 in Rain Rain
4:35 AM 44.6 °F 36.6 °F 44.6 °F 100% 29.82 in 7.0 mi NNE 19.6 mph 28.8 mph 0.17 in Rain Rain
4:55 AM 44.6 °F 37.4 °F 44.6 °F 100% 29.81 in 7.0 mi NNE 16.1 mph 26.5 mph 0.23 in Rain Light Rain
5:15 AM 44.6 °F 37.2 °F 44.6 °F 100% 29.78 in 7.0 mi NNE 17.3 mph 24.2 mph 0.07 in Rain Rain
5:35 AM 44.6 °F 36.9 °F 44.6 °F 100% 29.77 in 4.0 mi NNE 18.4 mph 27.6 mph 0.18 in Rain Heavy Rain
5:55 AM 44.6 °F 36.9 °F 44.6 °F 100% 29.76 in 4.0 mi North 18.4 mph 27.6 mph 0.32 in Rain Light Rain
6:15 AM 44.6 °F 36.6 °F 44.6 °F 100% 29.72 in 2.5 mi North 19.6 mph 29.9 mph 0.14 in   Overcast
7:15 AM 44.6 °F 37.4 °F 44.6 °F 100% 29.70 in 4.0 mi North 16.1 mph 33.4 mph 0.11 in Rain Rain
7:35 AM 44.6 °F 36.9 °F 44.6 °F 100% 29.69 in 5.0 mi North 18.4 mph 28.8 mph 0.20 in Rain Rain
7:55 AM 44.6 °F 37.4 °F 44.6 °F 100% 29.68 in 10.0 mi North 16.1 mph 27.6 mph 0.25 in Rain Light Rain
8:15 AM 46.4 °F 40.1 °F 46.4 °F 100% 29.68 in 10.0 mi North 15.0 mph 21.9 mph 0.02 in Rain Light Rain
8:35 AM 46.4 °F 40.7 °F 46.4 °F 100% 29.69 in 10.0 mi NNW 12.7 mph 21.9 mph 0.08 in Rain Rain
8:55 AM 46.4 °F 40.4 °F 46.4 °F 100% 29.69 in 10.0 mi NNW 13.8 mph 25.3 mph 0.15 in Rain Rain
9:15 AM 44.6 °F 38.4 °F 44.6 °F 100% 29.69 in 10.0 mi NNW 12.7 mph 20.7 mph 0.02 in Rain Light Rain
9:35 AM 46.4 °F 41.5 °F 46.4 °F 100% 29.70 in 10.0 mi NNW 10.4 mph 27.6 mph 0.03 in   Overcast
9:55 AM 44.6 °F 38.1 °F 44.6 °F 100% 29.71 in 10.0 mi NNW 13.8 mph 19.6 mph 0.03 in Rain Light Rain
10:15 AM 44.6 °F 39.7 °F 44.6 °F 100% 29.71 in 7.0 mi NW 9.2 mph 17.3 mph 0.02 in Rain Rain
10:35 AM 44.6 °F 37.2 °F 44.6 °F 100% 29.71 in 10.0 mi NW 17.3 mph 21.9 mph 0.02 in   Drizzle
10:55 AM 44.6 °F 37.4 °F 44.6 °F 100% 29.72 in 10.0 mi WNW 16.1 mph 24.2 mph 0.02 in   Light Drizzle
11:15 AM 42.8 °F 36.2 °F 42.8 °F 100% 29.72 in 10.0 mi NW 12.7 mph 26.5 mph N/A   Overcast
11:35 AM 42.8 °F 35.1 °F 42.8 °F 100% 29.71 in 10.0 mi NW 16.1 mph 19.6 mph N/A   Overcast
11:55 AM 42.8 °F 35.1 °F 42.8 °F 100% 29.71 in 10.0 mi WNW 16.1 mph 20.7 mph N/A   Overcast
12:15 PM 44.6 °F 37.8 °F 44.6 °F 100% 29.71 in 10.0 mi NW 15.0 mph 20.7 mph N/A   Overcast
12:35 PM 44.6 °F 37.4 °F 44.6 °F 100% 29.72 in 10.0 mi WNW 16.1 mph 24.2 mph N/A   Overcast
12:55 PM 44.6 °F 38.1 °F 44.6 °F 100% 29.72 in 10.0 mi WNW 13.8 mph 23.0 mph N/A   Overcast
1:15 PM 46.4 °F 40.1 °F 46.4 °F 100% 29.71 in 10.0 mi WNW 15.0 mph 21.9 mph N/A   Mostly Cloudy
1:35 PM 48.2 °F - 46.4 °F 93% 29.71 in 10.0 mi WNW 13.8 mph 18.4 mph N/A   Scattered Clouds
1:55 PM 51.8 °F - 46.4 °F 82% 29.71 in 10.0 mi NW 15.0 mph 21.9 mph N/A   Scattered Clouds
2:15 PM 51.8 °F - 46.4 °F 82% 29.71 in 10.0 mi WNW 17.3 mph 24.2 mph N/A   Mostly Cloudy
2:35 PM 51.8 °F - 46.4 °F 82% 29.71 in 10.0 mi WNW 18.4 mph 23.0 mph N/A   Mostly Cloudy
2:55 PM 53.6 °F - 44.6 °F 72% 29.71 in 10.0 mi WNW 17.3 mph 21.9 mph N/A   Scattered Clouds
3:15 PM 51.8 °F - 46.4 °F 82% 29.72 in 10.0 mi West 18.4 mph 26.5 mph N/A   Scattered Clouds
3:35 PM 53.6 °F - 46.4 °F 77% 29.72 in 10.0 mi West 12.7 mph 20.7 mph N/A   Mostly Cloudy
3:55 PM 51.8 °F - 44.6 °F 76% 29.73 in 10.0 mi West 16.1 mph 24.2 mph N/A   Mostly Cloudy
4:15 PM 50.0 °F - 44.6 °F 82% 29.74 in 10.0 mi West 20.7 mph 26.5 mph N/A   Mostly Cloudy
4:35 PM 50.0 °F - 44.6 °F 82% 29.76 in 10.0 mi West 15.0 mph 24.2 mph N/A   Scattered Clouds
4:55 PM 48.2 °F - 42.8 °F 82% 29.76 in 10.0 mi West 13.8 mph 20.7 mph N/A   Mostly Cloudy
5:15 PM 48.2 °F - 42.8 °F 82% 29.77 in 10.0 mi West 13.8 mph - N/A   Scattered Clouds
5:35 PM 48.2 °F - 42.8 °F 82% 29.78 in 10.0 mi West 11.5 mph - N/A   Clear
5:55 PM 48.2 °F - 42.8 °F 82% 29.78 in 10.0 mi West 9.2 mph - N/A   Clear
6:15 PM 46.4 °F 44.3 °F 42.8 °F 87% 29.79 in 10.0 mi West 4.6 mph - N/A   Clear
6:35 PM 46.4 °F 45.2 °F 42.8 °F 87% 29.80 in 10.0 mi WSW 3.5 mph - N/A   Clear
6:55 PM 44.6 °F 43.1 °F 42.8 °F 93% 29.80 in 10.0 mi West 3.5 mph - N/A   Clear
7:15 PM 44.6 °F 43.1 °F 42.8 °F 93% 29.81 in 10.0 mi West 3.5 mph - N/A   Scattered Clouds
7:35 PM 44.6 °F - 42.8 °F 93% 29.81 in 10.0 mi Calm Calm - N/A   Scattered Clouds
7:55 PM 44.6 °F - 42.8 °F 93% 29.82 in 10.0 mi Calm Calm - N/A   Mostly Cloudy
8:15 PM 44.6 °F - 42.8 °F 93% 29.83 in 10.0 mi Calm Calm - N/A   Scattered Clouds
8:35 PM 42.8 °F 41.1 °F 42.8 °F 100% 29.84 in 10.0 mi WNW 3.5 mph - N/A   Clear
8:55 PM 44.6 °F 42.2 °F 42.8 °F 93% 29.86 in 10.0 mi WNW 4.6 mph - N/A   Mostly Cloudy
9:15 PM 46.4 °F 43.5 °F 42.8 °F 87% 29.87 in 10.0 mi WNW 5.8 mph - N/A   Scattered Clouds
9:35 PM 46.4 °F 42.9 °F 42.8 °F 87% 29.88 in 10.0 mi WNW 6.9 mph - N/A   Scattered Clouds
9:55 PM 46.4 °F 40.4 °F 39.2 °F 76% 29.88 in 10.0 mi WNW 13.8 mph 20.7 mph N/A   Mostly Cloudy
10:15 PM 46.4 °F 40.1 °F 37.4 °F 71% 29.89 in 10.0 mi WNW 15.0 mph 23.0 mph N/A   Scattered Clouds
10:35 PM 44.6 °F 38.4 °F 37.4 °F 76% 29.90 in 10.0 mi West 12.7 mph 17.3 mph N/A   Clear
10:55 PM 44.6 °F 38.4 °F 33.8 °F 66% 29.91 in 10.0 mi West 12.7 mph 16.1 mph N/A   Clear
11:15 PM 44.6 °F 39.2 °F 33.8 °F 66% 29.92 in 10.0 mi West 10.4 mph 17.3 mph N/A   Clear
11:35 PM 42.8 °F 36.2 °F 32.0 °F 66% 29.92 in 10.0 mi West 12.7 mph 18.4 mph N/A   Clear
11:55 PM 42.8 °F 36.2 °F 32.0 °F 66% 29.93 in 10.0 mi West 12.7 mph - N/A   Clear